When you browse on this site, cookies collect data to enhance your experience and personalize the content and advertising you see.
Visit our Privacy Policy to learn more. By continuing to use the site, you agree to this use of cookies and data.
  • In Portugal
  • List of Countries
  • For 7 days
  • Water Temperature
  • Weather Map
  • Weather Widgets
  • user-avatar
    Login

    Hourly Weather Salzburg

    Today, 20 February, Thursday

    Time Temperature Precipitation Wind Pressure Humidity
    00:00 -7°C° 0.1 mm 1 mps 627 mmHg 92%
    01:00 -7°C° 0 mm 1 mps 627 mmHg 91%
    02:00 -7°C° 0.1 mm 1 mps 627 mmHg 90%
    03:00 -7°C° 0.1 mm 1 mps 627 mmHg 88%
    04:00 -7°C° 0.1 mm 1 mps 627 mmHg 86%
    05:00 -7°C° 0 mm 1 mps 627 mmHg 87%
    06:00 -7°C° 0 mm 1 mps 627 mmHg 87%
    07:00 -7°C° 0 mm 1 mps 627 mmHg 87%
    08:00 -4°C° 0 mm 1 mps 627 mmHg 83%
    09:00 -3°C° 0 mm 1 mps 628 mmHg 79%
    10:00 -2°C° 0 mm 1 mps 628 mmHg 75%
    11:00 -1°C° 0 mm 1 mps 628 mmHg 75%
    12:00 -1°C° 0 mm 0 mps 628 mmHg 74%
    13:00 0°C° 0 mm 0 mps 628 mmHg 74%
    14:00 0°C° 0 mm 0 mps 627 mmHg 75%
    15:00 +1°C° 0 mm 1 mps 627 mmHg 76%
    16:00 +1°C° 0 mm 1 mps 627 mmHg 77%
    17:00 0°C° 0 mm 1 mps 626 mmHg 79%
    18:00 -1°C° 0 mm 1 mps 626 mmHg 81%
    19:00 -5°C° 0 mm 2 mps 625 mmHg 83%
    20:00 -5°C° 0 mm 2 mps 625 mmHg 80%
    21:00 -5°C° 0 mm 2 mps 625 mmHg 77%
    22:00 -5°C° 0 mm 2 mps 625 mmHg 74%
    23:00 -3°C° 0 mm 1 mps 625 mmHg 73%

    Tomorrow, 21 February, Friday

    Time Temperature Precipitation Wind Pressure Humidity
    00:00 -3°C° 0 mm 1 mps 625 mmHg 71%
    01:00 -3°C° 0 mm 1 mps 625 mmHg 69%
    02:00 -3°C° 0 mm 1 mps 625 mmHg 71%
    03:00 -3°C° 0 mm 1 mps 625 mmHg 73%
    04:00 -3°C° 0 mm 1 mps 625 mmHg 75%
    05:00 -5°C° 0.5 mm 2 mps 626 mmHg 80%
    06:00 -5°C° 0.5 mm 2 mps 627 mmHg 86%
    07:00 -5°C° 0.5 mm 2 mps 627 mmHg 92%
    14:00 -3°C° 0.1 mm 2 mps 630 mmHg 89%
    15:00 -3°C° 0 mm 2 mps 629 mmHg 77%
    16:00 -3°C° 0 mm 2 mps 629 mmHg 77%
    17:00 -2°C° 0 mm 1 mps 630 mmHg 81%
    18:00 -3°C° 0 mm 1 mps 630 mmHg 85%
    19:00 -4°C° 0 mm 1 mps 630 mmHg 88%
    20:00 -4°C° 0 mm 1 mps 630 mmHg 87%
    21:00 -4°C° 0 mm 1 mps 630 mmHg 85%
    22:00 -4°C° 0 mm 1 mps 630 mmHg 84%
    23:00 -4°C° 0 mm 1 mps 630 mmHg 82%

    Day after tomorrow, 22 February, Saturday

    Time Temperature Precipitation Wind Pressure Humidity
    00:00 -4°C° 0 mm 1 mps 630 mmHg 81%
    01:00 -4°C° 0 mm 1 mps 630 mmHg 79%
    02:00 -3°C° 0 mm 1 mps 630 mmHg 76%
    03:00 -3°C° 0 mm 1 mps 630 mmHg 73%
    04:00 -3°C° 0 mm 1 mps 630 mmHg 70%
    05:00 -3°C° 0 mm 1 mps 630 mmHg 68%
    06:00 -3°C° 0 mm 1 mps 630 mmHg 66%
    07:00 -3°C° 0 mm 1 mps 630 mmHg 64%
    08:00 -1°C° 0 mm 1 mps 631 mmHg 64%
    09:00 +1°C° 0 mm 1 mps 631 mmHg 64%
    10:00 +2°C° 0 mm 1 mps 632 mmHg 64%
    11:00 +4°C° 0 mm 1 mps 632 mmHg 64%
    12:00 +5°C° 0 mm 1 mps 632 mmHg 64%
    13:00 +5°C° 0 mm 0 mps 632 mmHg 64%
    14:00 +6°C° 0 mm 1 mps 632 mmHg 68%
    15:00 +6°C° 0 mm 1 mps 631 mmHg 71%
    16:00 +5°C° 0 mm 1 mps 631 mmHg 75%
    17:00 +4°C° 0 mm 1 mps 631 mmHg 72%
    18:00 +3°C° 0 mm 1 mps 631 mmHg 70%
    19:00 +1°C° 0 mm 2 mps 630 mmHg 67%
    20:00 +2°C° 0 mm 1 mps 630 mmHg 65%
    21:00 +2°C° 0 mm 1 mps 630 mmHg 64%
    22:00 +1°C° 0 mm 1 mps 630 mmHg 62%
    23:00 +1°C° 0 mm 1 mps 630 mmHg 63%

    23 February, Sunday

    Time Temperature Precipitation Wind Pressure Humidity
    00:00 +1°C° 0 mm 1 mps 630 mmHg 64%
    01:00 +1°C° 0 mm 1 mps 630 mmHg 64%
    02:00 0°C° 0 mm 1 mps 630 mmHg 66%
    03:00 0°C° 0 mm 1 mps 630 mmHg 67%
    04:00 0°C° 0 mm 1 mps 629 mmHg 68%
    05:00 0°C° 0.2 mm 1 mps 629 mmHg 73%
    06:00 0°C° 0.2 mm 1 mps 630 mmHg 79%
    07:00 0°C° 0.2 mm 1 mps 630 mmHg 84%
    08:00 0°C° 0.4 mm 1 mps 630 mmHg 85%
    09:00 +1°C° 0.4 mm 1 mps 630 mmHg 87%
    10:00 +1°C° 0.4 mm 1 mps 630 mmHg 88%
    11:00 +2°C° 0.2 mm 1 mps 630 mmHg 89%
    12:00 +2°C° 0.2 mm 1 mps 629 mmHg 89%
    13:00 +2°C° 0.2 mm 1 mps 629 mmHg 90%
    14:00 +2°C° 0.3 mm 1 mps 629 mmHg 90%
    15:00 +3°C° 0.3 mm 1 mps 628 mmHg 91%
    16:00 +3°C° 0.3 mm 1 mps 628 mmHg 92%
    17:00 +3°C° 0.2 mm 1 mps 628 mmHg 91%
    18:00 +3°C° 0.2 mm 1 mps 628 mmHg 91%
    19:00 +2°C° 0.2 mm 2 mps 628 mmHg 91%
    20:00 +2°C° 0 mm 2 mps 628 mmHg 90%
    21:00 +2°C° 0 mm 2 mps 628 mmHg 89%
    22:00 +2°C° 0 mm 2 mps 628 mmHg 88%
    23:00 +2°C° 0.1 mm 2 mps 628 mmHg 89%

    24 February, Monday

    Time Temperature Precipitation Wind Pressure Humidity
    00:00 +2°C° 0.1 mm 2 mps 628 mmHg 90%
    01:00 +2°C° 0.1 mm 2 mps 628 mmHg 90%
    02:00 +2°C° 0.8 mm 2 mps 627 mmHg 92%
    03:00 +2°C° 0.8 mm 2 mps 627 mmHg 93%
    04:00 +2°C° 0.8 mm 2 mps 627 mmHg 94%
    05:00 +2°C° 1 mm 2 mps 627 mmHg 95%
    06:00 +2°C° 1 mm 2 mps 628 mmHg 95%
    07:00 +2°C° 1 mm 2 mps 628 mmHg 95%
    08:00 +3°C° 1 mm 1 mps 628 mmHg 95%
    09:00 +3°C° 1 mm 1 mps 628 mmHg 95%
    10:00 +3°C° 1 mm 1 mps 628 mmHg 95%
    11:00 +3°C° 0.4 mm 1 mps 628 mmHg 94%
    12:00 +4°C° 0.4 mm 1 mps 628 mmHg 93%
    13:00 +4°C° 0.4 mm 1 mps 628 mmHg 92%
    14:00 +5°C° 0 mm 1 mps 628 mmHg 90%
    15:00 +5°C° 0 mm 1 mps 628 mmHg 88%
    16:00 +6°C° 0 mm 1 mps 628 mmHg 86%
    17:00 +5°C° 0 mm 1 mps 627 mmHg 86%
    18:00 +4°C° 0 mm 1 mps 627 mmHg 86%
    19:00 +3°C° 0 mm 1 mps 626 mmHg 87%
    20:00 +2°C° 0 mm 1 mps 626 mmHg 85%
    21:00 +2°C° 0 mm 1 mps 626 mmHg 83%
    22:00 +2°C° 0 mm 1 mps 626 mmHg 81%
    23:00 +2°C° 0 mm 1 mps 625 mmHg 80%

    25 February, Tuesday

    Time Temperature Precipitation Wind Pressure Humidity
    00:00 +2°C° 0 mm 1 mps 625 mmHg 80%
    01:00 +1°C° 0 mm 1 mps 625 mmHg 79%
    02:00 +1°C° 0 mm 1 mps 624 mmHg 79%
    03:00 +1°C° 0 mm 1 mps 624 mmHg 79%
    04:00 +1°C° 0 mm 1 mps 624 mmHg 79%
    05:00 +1°C° 0 mm 1 mps 624 mmHg 81%
    06:00 +1°C° 0 mm 1 mps 624 mmHg 82%
    07:00 0°C° 0 mm 1 mps 623 mmHg 83%
    08:00 +2°C° 0 mm 1 mps 624 mmHg 81%
    09:00 +3°C° 0 mm 0 mps 624 mmHg 79%
    10:00 +4°C° 0 mm 0 mps 624 mmHg 77%
    11:00 +5°C° 0 mm 0 mps 624 mmHg 74%
    12:00 +6°C° 0 mm 0 mps 624 mmHg 70%
    13:00 +8°C° 0 mm 1 mps 623 mmHg 66%
    14:00 +7°C° 0 mm 1 mps 623 mmHg 69%
    15:00 +6°C° 0 mm 1 mps 622 mmHg 72%
    16:00 +6°C° 0 mm 1 mps 621 mmHg 75%
    17:00 +5°C° 0 mm 1 mps 621 mmHg 79%
    18:00 +3°C° 0 mm 1 mps 620 mmHg 82%
    19:00 +1°C° 0 mm 0 mps 620 mmHg 85%
    20:00 +2°C° 0.1 mm 1 mps 620 mmHg 86%
    21:00 +2°C° 0.1 mm 1 mps 619 mmHg 88%
    22:00 +1°C° 0.1 mm 1 mps 619 mmHg 89%
    23:00 +1°C° 0.5 mm 1 mps 619 mmHg 91%
    Show more